Wind_Speed
10 9 9 10 10 11 11 12 11 11 11 11 11 11 11 11 11 11 12 12 13 13 14 14 15 16 17 18 19 20 20 20 19 18 17 16 14 13 13 12 11 10 9
11 11 10 11 11 13 14 14 14 13 13 13 13 13 13 12 12 12 12 12 13 13 14 14 15 15 16 18 19 19 19 20 20 20 19 18 16 15 14 13 12 10 9
12 12 12 13 13 14 15 16 16 16 16 16 15 15 15 14 13 13 13 13 13 13 13 14 14 14 15 17 18 18 18 19 19 20 19 19 18 16 15 13 12 11 9
14 15 15 15 15 16 17 18 18 18 19 19 18 18 17 17 15 15 14 14 13 13 13 13 13 13 14 15 16 17 18 18 18 18 19 19 18 17 16 15 13 12 10
17 18 18 18 19 19 19 19 20 20 21 21 21 20 20 20 19 17 16 15 14 14 13 13 13 13 13 14 14 15 16 17 17 17 18 18 17 17 16 15 13 11 10
20 21 22 22 22 22 22 21 22 22 22 23 24 23 23 22 22 20 19 17 16 15 14 13 13 12 12 13 13 13 14 15 16 17 17 17 17 16 15 14 12 11 9
25 25 25 25 25 25 26 25 25 25 25 25 26 26 26 25 24 24 23 21 19 17 16 15 14 13 12 12 12 13 13 14 14 15 15 15 15 14 14 13 12 10 9
27 27 27 27 28 28 28 29 29 29 28 28 27 28 28 27 27 26 26 25 23 21 19 17 15 14 13 12 11 12 12 12 13 13 14 14 13 12 12 12 11 10 9
28 28 28 28 28 29 29 30 31 31 30 30 29 29 29 29 28 28 28 27 25 24 22 20 18 16 15 13 12 11 11 11 11 12 12 12 12 11 11 11 10 10 9
26 27 27 27 27 28 28 29 30 32 32 32 31 30 29 29 29 30 30 29 27 26 24 22 20 19 17 15 13 12 12 11 11 11 11 11 11 11 10 10 9 9 10
25 26 26 26 26 26 26 27 28 30 31 32 32 32 31 30 30 30 30 30 29 27 25 24 23 21 20 17 15 13 12 12 11 11 10 10 10 10 9 9 9 9 9
23 23 23 23 23 23 24 24 25 27 29 30 31 32 32 32 30 29 29 30 29 28 27 25 24 23 22 20 18 15 13 12 12 11 10 10 10 10 9 9 9 9 10
21 21 21 21 22 22 22 22 23 23 25 26 28 30 31 31 31 30 29 30 29 28 27 26 25 24 24 23 21 18 16 14 13 12 11 11 11 10 10 9 9 10 10
19 19 19 20 20 20 20 20 20 21 21 23 24 26 28 29 30 30 30 30 30 29 29 28 26 24 23 24 24 21 19 17 16 14 13 12 12 12 11 10 10 10 10
18 18 19 19 19 19 19 19 19 19 20 21 22 23 24 26 27 28 29 30 29 29 29 30 28 27 25 24 25 25 22 20 19 17 16 14 13 13 13 12 11 11 11
18 18 18 18 19 19 19 18 17 17 17 17 19 20 22 23 25 26 27 28 29 29 27 29 28 28 28 26 26 27 26 24 21 20 19 17 16 15 15 13 13 12 12
18 18 19 19 19 19 18 17 16 16 16 16 16 17 19 21 23 25 25 26 28 29 29 29 29 28 28 27 26 27 28 27 24 22 21 20 19 18 17 16 15 14 13
18 19 20 19 19 19 18 17 16 14 13 14 14 15 16 18 20 22 24 25 27 28 28 28 29 29 29 28 27 27 28 29 27 25 23 22 21 20 19 18 17 16 15
19 19 19 19 19 19 18 17 16 14 12 12 12 12 13 15 17 19 21 23 25 27 28 28 28 29 29 29 28 27 28 29 28 27 26 25 24 23 22 21 20 18 17
18 19 19 19 19 19 18 18 16 14 12 11 9 9 9 11 13 15 17 20 22 24 26 26 27 29 29 29 29 28 29 28 26 27 28 28 27 26 26 24 23 21 20
18 18 19 19 19 19 19 19 18 16 14 12 10 8 7 7 8 10 13 16 19 21 23 24 26 27 29 29 29 30 29 29 27 27 28 30 30 30 29 28 26 25 24
17 18 19 19 20 20 20 19 19 17 16 14 12 10 7 6 6 7 9 12 15 18 20 22 24 25 27 28 29 29 28 29 29 30 28 29 31 31 32 32 30 29 27
17 18 19 19 20 20 20 20 19 19 17 16 15 13 10 8 6 6 7 9 11 13 16 19 21 24 25 26 27 28 28 28 30 30 31 30 30 31 32 33 34 32 31
16 17 18 19 20 20 20 20 20 20 19 18 17 16 14 11 9 7 6 6 8 10 12 16 18 21 23 25 27 28 29 29 30 31 31 33 33 32 32 33 35 36 35
15 16 17 18 19 20 20 20 20 20 20 19 18 17 16 14 11 10 8 6 6 8 9 12 16 18 21 24 26 28 29 30 31 32 32 34 35 34 34 35 36 36 37
14 15 16 17 19 19 20 20 20 20 20 19 19 19 17 16 14 12 10 8 7 7 8 9 12 15 18 20 23 25 28 30 31 33 34 35 36 37 37 37 37 38 38
Wind_Direction
330 320 308 301 298 296 294 292 289 287 286 286 287 287 286 282 279 275 272 270 267 264 263 262 261 256 255 252 252 252 251 251 252 254 257 262 269 273 280 288 296 309 319
319 316 309 302 297 293 290 287 282 277 276 276 276 277 279 278 276 274 272 271 269 267 265 264 262 258 257 256 254 253 252 251 251 254 257 259 264 269 275 280 286 294 302
314 312 308 304 299 295 291 287 282 275 271 270 269 268 270 272 272 272 272 270 269 268 266 266 265 262 260 258 256 254 253 251 251 253 255 256 260 264 269 273 278 283 285
307 304 303 300 297 294 290 284 281 275 270 267 267 265 265 266 267 268 269 268 267 266 265 265 265 264 262 259 257 255 254 251 251 252 252 254 257 260 262 268 273 273 271
300 297 295 293 291 289 286 282 277 275 270 266 265 264 263 262 262 263 264 264 264 264 264 264 264 264 264 261 258 256 254 251 251 250 251 253 255 257 259 264 265 264 258
295 293 291 288 287 283 281 280 277 273 269 265 262 260 261 260 258 259 260 260 261 262 262 261 262 263 264 263 259 256 254 251 250 250 251 252 254 254 255 257 257 251 245
293 291 289 285 283 281 278 276 275 272 269 267 262 260 260 260 257 254 255 256 257 258 258 259 261 262 262 261 259 256 253 251 250 250 249 250 251 250 249 248 248 242 235
294 292 289 285 282 280 277 275 272 270 269 267 264 259 258 258 257 254 252 253 252 253 254 256 258 259 259 259 257 256 254 251 249 246 245 246 246 244 242 238 236 232 227
296 294 291 288 285 281 277 274 271 268 266 265 263 262 257 257 256 253 253 253 252 251 251 251 253 254 255 255 254 253 253 250 246 241 240 240 239 237 234 232 226 223 217
298 296 294 292 289 286 281 277 272 268 265 262 261 261 259 257 255 253 253 252 250 249 249 249 248 249 249 251 250 249 248 246 241 237 235 234 231 228 227 222 218 212 209
304 302 299 296 294 290 287 281 276 270 265 262 260 259 258 257 257 256 253 250 248 247 248 249 246 244 243 244 245 243 242 240 237 236 232 229 224 222 220 216 211 208 206
310 308 306 302 299 296 292 288 282 275 270 265 261 259 257 256 255 255 253 250 248 247 246 247 247 242 239 238 238 238 237 236 234 233 229 226 220 216 215 210 208 205 201
318 316 313 309 307 303 297 292 287 281 274 268 262 258 256 254 252 252 252 250 249 248 246 247 245 244 241 235 234 234 233 232 231 230 228 226 219 216 212 204 204 203 199
328 326 324 320 317 312 306 299 291 285 279 271 265 260 255 252 250 249 250 249 249 248 245 246 244 245 242 235 232 232 231 230 228 227 226 224 221 216 210 204 202 202 198
335 332 329 326 323 320 314 308 300 291 285 277 268 262 257 252 249 247 246 246 246 245 244 242 243 243 242 238 234 231 230 228 228 226 224 222 219 216 213 208 204 203 200
342 340 337 333 329 326 322 316 307 297 290 284 274 264 258 253 249 247 244 242 241 241 240 240 242 242 240 238 235 230 228 226 226 227 224 221 219 217 215 211 208 206 203
349 348 346 343 337 334 331 326 318 307 295 289 281 270 262 255 250 247 244 241 239 238 238 239 240 239 237 239 237 233 230 228 227 227 225 222 220 217 215 213 212 209 207
354 352 348 346 345 343 341 337 331 323 310 298 287 275 267 260 253 249 245 241 239 237 237 237 236 236 237 238 238 238 234 231 228 225 225 224 222 219 216 214 214 212 210
1 358 356 354 354 354 352 349 345 339 329 315 299 283 272 265 258 251 246 243 239 237 236 234 234 234 235 236 237 239 236 232 230 227 225 224 224 222 219 218 217 216 213
6 4 4 4 3 3 3 3 0 356 350 341 326 307 288 275 263 254 247 243 240 239 236 233 233 232 234 235 237 238 236 233 232 230 227 226 226 224 221 221 220 219 217
13 11 11 12 12 12 12 12 11 9 7 2 353 337 315 294 275 261 251 246 242 240 238 235 233 232 232 233 234 235 235 234 235 230 230 228 227 227 225 223 224 223 222
19 19 19 19 19 19 19 18 18 16 15 12 9 359 343 322 298 275 261 253 245 241 241 239 236 234 233 233 233 233 233 233 233 229 229 228 227 227 227 226 227 226 225
22 21 22 23 23 23 23 24 24 24 23 20 19 16 11 356 333 304 277 264 255 247 242 239 238 236 235 234 234 233 233 233 230 229 228 227 227 227 228 229 228 227 227
23 23 23 24 24 24 25 26 26 26 26 25 24 22 18 13 4 348 320 287 268 256 248 242 240 238 236 236 235 235 235 235 233 231 230 228 228 229 229 230 229 229 229
23 23 24 24 24 24 24 25 25 25 25 25 24 22 20 16 11 5 354 331 296 274 262 251 245 242 240 239 237 236 236 236 236 234 233 231 231 230 230 229 229 229 230
22 22 23 23 23 23 23 23 23 23 23 23 23 23 22 20 17 11 3 351 332 305 283 268 256 249 245 243 241 240 239 238 237 236 235 235 234 232 231 229 229 230 231
Height
5896 5895 5894 5893 5893 5892 5891 5891 5890 5889 5889 5889 5888 5888 5888 5887 5887 5887 5887 5887 5887 5887 5887 5887 5886 5886 5887 5887 5887 5888 5888 5889 5890 5890 5891 5891 5891 5891 5891 5891 5890 5889 5889
5894 5893 5892 5891 5891 5890 5890 5889 5888 5887 5887 5887 5886 5886 5886 5886 5885 5885 5885 5885 5885 5885 5885 5884 5884 5884 5884 5884 5884 5885 5886 5886 5887 5888 5889 5889 5889 5889 5889 5889 5889 5888 5888
5893 5891 5890 5889 5888 5888 5887 5886 5886 5885 5884 5884 5884 5884 5883 5883 5883 5883 5883 5883 5883 5883 5882 5882 5882 5882 5882 5882 5882 5882 5883 5884 5884 5885 5886 5886 5887 5887 5887 5887 5887 5887 5887
5890 5889 5888 5887 5886 5885 5884 5883 5882 5882 5881 5881 5881 5881 5880 5880 5880 5880 5880 5880 5880 5880 5880 5880 5880 5880 5879 5879 5879 5880 5880 5881 5882 5882 5883 5883 5884 5885 5885 5885 5886 5886 5886
5887 5886 5884 5883 5882 5881 5880 5879 5878 5878 5877 5877 5877 5877 5877 5877 5877 5877 5878 5878 5878 5878 5878 5878 5877 5877 5877 5877 5877 5877 5878 5878 5879 5879 5880 5881 5882 5882 5883 5883 5883 5884 5884
5884 5882 5880 5879 5878 5876 5875 5874 5873 5873 5872 5872 5872 5872 5872 5873 5873 5874 5874 5875 5875 5875 5875 5875 5875 5875 5875 5875 5875 5875 5875 5876 5876 5877 5877 5878 5879 5880 5880 5881 5881 5882 5883
5879 5877 5875 5874 5872 5871 5870 5869 5868 5867 5867 5867 5866 5867 5867 5868 5868 5869 5870 5871 5871 5872 5872 5872 5873 5873 5873 5873 5873 5873 5873 5873 5874 5875 5875 5876 5876 5877 5878 5878 5879 5880 5881
5873 5871 5869 5868 5866 5865 5864 5863 5862 5861 5861 5860 5860 5860 5861 5862 5863 5864 5865 5866 5867 5868 5869 5869 5870 5870 5870 5870 5871 5871 5871 5871 5872 5872 5873 5873 5874 5875 5875 5876 5877 5878 5879
5868 5865 5863 5861 5860 5858 5857 5856 5854 5854 5854 5854 5854 5854 5855 5856 5856 5857 5859 5860 5862 5863 5864 5865 5866 5867 5868 5868 5868 5869 5869 5869 5870 5870 5871 5871 5872 5873 5873 5874 5875 5876 5878
5862 5859 5857 5855 5853 5851 5849 5848 5847 5846 5846 5846 5847 5847 5848 5849 5850 5851 5853 5854 5856 5858 5859 5861 5862 5864 5865 5866 5866 5866 5867 5867 5868 5868 5869 5870 5870 5871 5872 5873 5874 5875 5876
5857 5854 5851 5848 5846 5844 5842 5840 5839 5838 5838 5838 5839 5840 5841 5842 5844 5845 5846 5848 5849 5852 5854 5855 5857 5859 5861 5862 5863 5864 5865 5865 5866 5867 5867 5868 5868 5869 5871 5872 5873 5874 5875
5852 5849 5846 5843 5840 5838 5835 5833 5832 5830 5830 5830 5831 5832 5833 5835 5837 5838 5840 5842 5843 5846 5848 5850 5852 5854 5856 5858 5860 5861 5862 5863 5864 5865 5866 5866 5867 5868 5869 5871 5872 5873 5874
5848 5844 5841 5838 5835 5832 5830 5827 5825 5824 5823 5823 5823 5824 5826 5827 5829 5831 5833 5835 5837 5839 5842 5844 5847 5848 5851 5854 5856 5858 5860 5861 5862 5863 5864 5865 5865 5867 5868 5869 5871 5872 5874
5844 5841 5837 5834 5831 5828 5825 5822 5820 5818 5817 5816 5816 5816 5818 5820 5822 5824 5826 5828 5831 5833 5836 5839 5841 5843 5846 5849 5852 5854 5856 5858 5859 5860 5862 5863 5864 5865 5867 5868 5870 5872 5873
5842 5838 5835 5831 5827 5824 5821 5818 5815 5813 5811 5810 5810 5810 5811 5812 5814 5816 5819 5821 5824 5827 5830 5833 5835 5838 5841 5843 5846 5849 5852 5854 5856 5857 5859 5861 5862 5864 5866 5867 5869 5871 5872
5840 5836 5832 5828 5824 5821 5817 5814 5811 5808 5806 5805 5804 5804 5805 5806 5807 5809 5812 5814 5817 5820 5823 5826 5829 5832 5835 5838 5841 5844 5847 5850 5852 5854 5856 5858 5860 5862 5864 5866 5868 5870 5871
5838 5834 5830 5826 5822 5818 5814 5810 5807 5804 5802 5801 5799 5799 5799 5800 5801 5803 5805 5807 5810 5813 5816 5820 5823 5826 5829 5833 5836 5839 5842 5845 5848 5849 5852 5854 5856 5859 5861 5864 5866 5868 5870
5836 5832 5828 5824 5820 5815 5811 5807 5804 5801 5798 5797 5795 5795 5795 5795 5796 5797 5799 5801 5804 5807 5810 5813 5816 5820 5823 5827 5830 5833 5836 5839 5843 5845 5847 5850 5853 5856 5859 5861 5864 5866 5868
5834 5831 5827 5822 5818 5814 5810 5805 5802 5798 5796 5793 5792 5791 5791 5791 5791 5792 5794 5796 5798 5801 5804 5807 5810 5813 5817 5820 5824 5827 5830 5833 5837 5840 5843 5846 5849 5852 5855 5858 5861 5863 5865
5834 5831 5826 5822 5818 5813 5809 5805 5801 5797 5794 5791 5789 5788 5787 5787 5787 5788 5789 5791 5793 5795 5798 5801 5804 5807 5811 5814 5818 5821 5824 5827 5831 5834 5837 5841 5844 5847 5851 5854 5857 5860 5862
5835 5831 5827 5822 5818 5813 5809 5805 5800 5797 5793 5791 5788 5786 5785 5785 5784 5785 5786 5787 5788 5790 5792 5795 5798 5801 5804 5808 5812 5815 5818 5821 5825 5828 5832 5835 5839 5842 5846 5849 5853 5856 5858
5835 5831 5827 5823 5819 5814 5810 5805 5801 5797 5794 5791 5788 5786 5784 5783 5783 5782 5783 5783 5784 5786 5788 5790 5793 5795 5798 5802 5805 5809 5812 5816 5818 5822 5825 5829 5833 5836 5840 5843 5847 5850 5854
5836 5832 5828 5824 5820 5815 5811 5807 5803 5799 5795 5792 5789 5786 5784 5782 5781 5781 5780 5780 5781 5782 5784 5786 5788 5790 5793 5796 5799 5802 5806 5809 5812 5816 5819 5822 5826 5830 5833 5837 5841 5844 5848
5837 5833 5829 5825 5821 5817 5812 5808 5804 5800 5797 5793 5790 5787 5784 5782 5781 5779 5779 5778 5778 5779 5780 5782 5784 5785 5788 5790 5793 5796 5799 5802 5805 5808 5812 5815 5819 5823 5827 5830 5833 5837 5841
5838 5834 5830 5826 5822 5818 5814 5810 5806 5802 5798 5795 5791 5788 5785 5783 5781 5779 5778 5777 5776 5776 5777 5778 5779 5781 5783 5785 5787 5790 5792 5795 5798 5801 5804 5808 5812 5815 5819 5823 5826 5829 5833
5838 5835 5831 5828 5824 5820 5815 5811 5807 5804 5800 5796 5793 5790 5787 5784 5781 5779 5777 5776 5775 5774 5774 5774 5775 5776 5778 5780 5782 5784 5786 5789 5791 5794 5797 5800 5804 5807 5811 5815 5818 5822 5825